Location: Im Fang
(46.6019°N, 7.2397°E)
Time: 14:37:33
(UTC+00:00)

Okean 1-7 - Pass Details

Date: 08 December 2019
Orbit: 590 x 619 km, 82.5° (Epoch: 28 January)

Event Time Altitude Azimuth Distance (km) Brightness Sun altitude
Exits shadow 04:43:14 16° 1° (N) 1,652 5.1 -22.9°
Maximum altitude 04:46:43 59° 78° (ENE) 717 3.6 -22.3°
Drops below altitude 10° 04:51:03 10° 159° (SSE) 1,978 6.0 -21.6°
Sets 04:53:17 0° 163° (SSE) 2,876 6.9 -21.2°
